�N����,����,�~����,�C��,���x,�C��,����,���ϕ���,�ő�u�ԕ���,�ő厞����,���˗�,�I�_���x,�n�����x,�ő啗���N��,DTYPE
"18/04/06","00:10",0.0,14.0,84.3,1010.0,302.9,1.3,1.9,334.8,0.00,11.4,14.5,"00:08:40",1
"18/04/06","00:20",0.0,14.0,84.4,1009.7,298.2,1.2,1.8,306.7,0.00,11.5,14.5,"00:10:56",1
"18/04/06","00:30",0.0,13.9,84.5,1009.5,309.6,1.3,2.1,328.2,0.00,11.4,14.2,"00:21:28",1
"18/04/06","00:40",0.0,13.8,85.1,1010.0,280.8,1.1,1.6,300.5,0.00,11.4,14.2,"00:32:24",1
"18/04/06","00:50",0.0,13.6,84.8,1009.3,296.6,1.2,1.6,323.2,0.00,11.1,14.3,"00:45:20",1
"18/04/06","01:00",0.0,13.4,86.2,1009.0,323.4,1.0,1.6,325.4,0.00,11.2,14.0,"00:51:44",1
"18/04/06","01:10",0.0,13.2,86.5,1009.3,304.0,1.1,1.4,315.2,0.00,11.0,14.0,"01:07:52",1
"18/04/06","01:20",0.0,13.0,87.9,1009.0,321.0,1.2,1.9,322.6,0.00,11.1,14.1,"01:10:32",1
"18/04/06","01:30",0.0,12.8,88.0,1008.6,313.0,1.1,1.8,346.6,0.00,10.9,13.9,"01:25:52",1
"18/04/06","01:40",0.0,12.6,88.9,1008.6,287.0,1.1,1.6,269.2,0.00,10.9,14.1,"01:39:20",1
"18/04/06","01:50",0.0,12.6,89.7,1008.6,296.9,1.2,2.5,302.7,0.00,11.0,13.8,"01:40:48",1
"18/04/06","02:00",0.0,12.6,89.6,1008.3,319.8,1.3,1.7,327.4,0.00,11.0,13.8,"01:50:56",1
"18/04/06","02:10",0.0,12.3,89.8,1008.1,310.6,1.0,1.4,312.7,0.00,10.7,13.7,"02:01:52",1
"18/04/06","02:20",0.0,12.4,90.6,1007.8,308.0,1.3,2.1,321.5,0.00,10.9,13.7,"02:11:44",1
"18/04/06","02:30",0.0,12.4,90.7,1007.8,298.8,1.3,2.1,325.8,0.00,11.0,13.8,"02:26:24",1
"18/04/06","02:40",0.0,12.5,91.3,1007.6,305.6,0.7,1.9,311.0,0.00,11.2,13.6,"02:31:36",1
"18/04/06","02:50",0.0,12.7,91.2,1007.8,259.5,0.6,1.3,315.0,0.00,11.3,14.0,"02:47:52",1
"18/04/06","03:00",0.0,12.7,91.2,1007.6,312.3,0.8,1.6,326.1,0.00,11.3,13.6,"02:50:56",1
"18/04/06","03:10",0.0,12.8,90.8,1007.6,331.2,1.2,1.8,332.7,0.00,11.4,13.6,"03:07:36",1
"18/04/06","03:20",0.0,12.8,91.4,1007.4,293.0,1.2,1.9,242.6,0.00,11.5,13.7,"03:17:44",1
"18/04/06","03:30",0.0,12.9,91.3,1007.1,305.5,1.2,2.8,322.9,0.00,11.6,13.6,"03:20:16",1
"18/04/06","03:40",0.0,13.1,91.3,1006.9,315.8,1.0,1.4,309.7,0.00,11.8,13.8,"03:31:20",1
"18/04/06","03:50",0.0,13.1,90.9,1006.7,300.2,1.1,1.7,323.0,0.00,11.7,13.8,"03:44:32",1
"18/04/06","04:00",0.0,13.1,91.2,1006.9,320.8,1.2,1.6,339.9,0.00,11.7,13.6,"03:52:40",1
"18/04/06","04:10",0.0,13.1,91.4,1006.7,312.6,1.0,1.6,316.2,0.00,11.8,13.6,"04:05:36",1
"18/04/06","04:20",0.0,13.2,91.3,1006.7,302.7,1.0,1.6,316.4,0.00,11.9,13.6,"04:14:48",1
"18/04/06","04:30",0.0,13.2,91.4,1006.4,299.1,0.6,1.1,319.6,0.00,11.9,13.7,"04:22:48",1
"18/04/06","04:40",0.0,13.2,91.6,1006.4,287.4,0.2,0.5,288.3,0.00,11.9,13.7,"04:32:08",1
"18/04/06","04:50",0.0,13.3,91.5,1006.7,304.6,1.0,2.0,330.8,0.00,12.0,13.8,"04:48:16",1
"18/04/06","05:00",0.0,13.2,91.8,1006.0,303.9,0.6,1.6,344.7,0.00,11.9,13.7,"04:51:28",1
"18/04/06","05:10",0.0,13.1,91.8,1006.0,312.6,1.1,1.6,330.7,0.00,11.8,13.6,"05:07:20",1
"18/04/06","05:20",0.0,13.0,92.0,1006.2,302.9,1.0,1.6,315.7,0.00,11.8,13.7,"05:18:32",1
"18/04/06","05:30",0.0,12.8,92.8,1005.7,307.2,0.8,1.6,319.4,0.00,11.7,13.5,"05:24:16",1
"18/04/06","05:40",0.0,12.9,93.5,1006.0,297.8,0.6,1.3,314.2,0.00,11.9,13.7,"05:38:16",1
"18/04/06","05:50",0.0,13.1,93.1,1006.0,308.4,1.1,2.4,321.3,0.00,12.1,13.6,"05:49:52",1
"18/04/06","06:00",0.0,13.3,93.4,1006.0,298.4,0.8,1.8,305.4,0.00,12.3,13.6,"05:50:08",1
"18/04/06","06:10",0.0,13.3,93.4,1006.0,310.1,1.0,1.4,311.9,0.00,12.3,13.5,"06:06:00",1
"18/04/06","06:20",0.0,13.5,93.2,1006.0,310.0,1.1,1.6,326.6,0.00,12.5,13.7,"06:13:52",1
"18/04/06","06:30",0.0,13.6,93.0,1006.2,289.5,1.1,1.4,313.0,0.00,12.5,13.6,"06:24:56",1
"18/04/06","06:40",0.0,13.7,92.7,1006.0,267.3,0.8,1.1,293.1,0.02,12.6,13.7,"06:30:24",1
"18/04/06","06:50",0.0,14.1,92.0,1005.5,323.7,1.2,1.7,324.9,0.03,12.9,13.9,"06:45:12",1
"18/04/06","07:00",0.0,14.6,91.1,1005.2,328.3,0.7,1.6,321.0,0.05,13.2,13.6,"06:51:12",1
"18/04/06","07:10",0.0,14.8,90.1,1005.7,311.9,0.7,1.4,324.3,0.06,13.2,13.8,"07:04:48",1
"18/04/06","07:20",0.0,15.0,88.9,1005.5,311.0,1.2,2.5,331.0,0.05,13.2,13.8,"07:19:52",1
"18/04/06","07:30",0.0,15.1,87.8,1005.5,318.3,1.2,2.0,335.8,0.06,13.1,13.9,"07:20:48",1
"18/04/06","07:40",0.0,15.3,86.1,1005.5,315.5,0.8,1.3,323.5,0.04,13.0,14.0,"07:33:28",1
"18/04/06","07:50",0.0,15.4,85.4,1005.2,262.2,0.6,1.2,324.2,0.02,13.0,14.0,"07:48:48",1
"18/04/06","08:00",0.0,15.4,85.2,1005.0,260.1,0.8,2.6,237.4,0.04,13.0,14.2,"07:51:12",1
"18/04/06","08:10",0.0,15.6,84.9,1005.0,264.5,0.6,1.2,243.9,0.05,13.1,14.3,"08:02:16",1
"18/04/06","08:20",0.0,15.7,84.2,1005.2,182.9,0.5,1.0,222.7,0.07,13.1,14.2,"08:13:12",1
"18/04/06","08:30",0.0,16.1,83.1,1005.5,134.2,0.3,1.2,120.7,0.09,13.3,14.2,"08:22:56",1
"18/04/06","08:40",0.0,16.3,82.4,1004.8,103.4,0.6,1.4,341.5,0.12,13.3,14.2,"08:36:32",1
"18/04/06","08:50",0.0,16.4,82.5,1004.8,98.2,0.3,1.3,105.2,0.12,13.5,14.4,"08:40:16",1
"18/04/06","09:00",0.0,16.6,81.6,1005.0,158.5,0.5,1.1,209.0,0.12,13.5,14.7,"08:56:40",1
"18/04/06","09:10",0.0,16.8,80.3,1004.5,125.7,0.7,2.1,147.2,0.11,13.4,14.7,"09:07:04",1
"18/04/06","09:20",0.0,17.1,79.6,1004.1,166.6,0.7,1.9,139.4,0.11,13.6,14.8,"09:18:32",1
"18/04/06","09:30",0.0,17.2,79.4,1004.1,155.2,1.2,3.3,126.5,0.11,13.6,14.9,"09:26:16",1
"18/04/06","09:40",0.0,17.3,78.0,1004.1,215.1,0.7,2.4,119.5,0.13,13.5,15.1,"09:36:24",1
"18/04/06","09:50",0.0,17.7,77.4,1003.4,191.1,0.7,2.0,138.6,0.10,13.7,15.1,"09:49:52",1
"18/04/06","10:00",0.0,18.0,76.5,1003.1,190.1,1.1,2.6,137.6,0.11,13.9,15.0,"09:56:00",1
"18/04/06","10:10",0.0,18.4,75.1,1003.1,135.6,1.0,2.4,103.0,0.10,14.0,15.2,"10:05:20",1
"18/04/06","10:20",0.0,18.2,74.2,1002.9,226.3,1.1,2.0,123.0,0.09,13.6,15.2,"10:11:20",1
"18/04/06","10:30",0.0,18.5,74.6,1003.1,300.2,0.7,2.4,337.9,0.09,13.9,15.2,"10:27:12",1
"18/04/06","10:40",0.0,18.8,74.3,1002.6,49.5,1.0,2.1,338.9,0.14,14.2,15.4,"10:30:48",1
"18/04/06","10:50",0.0,19.5,73.5,1002.2,96.9,0.5,1.7,121.2,0.20,14.7,15.6,"10:42:48",1
"18/04/06","11:00",0.0,19.5,70.2,1002.2,92.5,1.0,2.0,151.1,0.24,14.0,15.6,"10:54:16",1
"18/04/06","11:10",0.0,19.8,68.8,1001.5,302.2,1.1,2.4,358.3,0.09,13.9,15.9,"11:07:52",1
"18/04/06","11:20",0.0,19.9,68.5,1001.2,214.2,1.5,2.9,238.7,0.04,14.0,15.6,"11:18:24",1
"18/04/06","11:30",0.0,20.1,67.2,1001.5,336.6,1.0,2.0,15.2,0.05,13.9,15.6,"11:21:12",1
"18/04/06","11:40",0.0,20.2,68.3,1001.0,251.3,0.8,2.6,235.5,0.05,14.2,15.9,"11:39:20",1
"18/04/06","11:50",0.0,20.3,69.5,1001.0,207.6,0.8,2.1,204.2,0.05,14.6,15.7,"11:40:40",1
"18/04/06","12:00",0.0,20.3,70.2,1000.5,286.6,0.8,1.6,346.2,0.05,14.7,15.8,"11:56:24",1
"18/04/06","12:10",0.2,20.0,70.0,1000.5,215.4,1.5,3.4,152.7,0.06,14.4,15.8,"12:02:40",1
"18/04/06","12:20",0.2,19.6,74.0,1000.5,295.9,1.2,3.4,316.1,0.08,14.9,15.9,"12:18:56",1
"18/04/06","12:30",0.0,19.6,76.7,1000.3,289.8,1.3,3.3,314.1,0.12,15.4,15.8,"12:28:56",1
"18/04/06","12:40",0.0,20.1,75.1,999.8,256.3,1.3,2.6,228.1,0.15,15.6,16.1,"12:30:08",1
"18/04/06","12:50",0.0,20.2,75.7,999.6,323.2,1.7,3.6,331.9,0.15,15.8,15.9,"12:46:32",1
"18/04/06","13:00",0.0,20.2,75.2,999.8,339.7,1.2,2.8,350.3,0.15,15.7,16.2,"12:53:44",1
"18/04/06","13:10",0.0,20.7,73.5,999.3,263.4,1.3,2.8,225.0,0.12,15.8,16.1,"13:07:12",1
"18/04/06","13:20",0.0,20.8,72.4,999.8,207.0,2.5,5.1,150.8,0.13,15.7,16.2,"13:11:04",1
"18/04/06","13:30",0.0,20.8,72.1,999.6,200.2,2.3,4.9,184.9,0.08,15.6,16.2,"13:23:36",1
"18/04/06","13:40",0.0,20.5,74.0,999.3,239.5,1.8,5.1,200.1,0.07,15.7,16.2,"13:32:08",1
"18/04/06","13:50",0.2,19.9,77.5,998.9,211.1,2.1,5.4,189.7,0.10,15.9,16.3,"13:49:20",1
"18/04/06","14:00",0.0,19.7,79.0,998.6,196.3,1.7,3.6,164.5,0.06,16.0,16.2,"13:50:40",1
"18/04/06","14:10",0.0,19.5,81.1,998.6,185.2,2.1,4.3,179.1,0.07,16.2,16.2,"14:04:16",1
"18/04/06","14:20",0.2,19.1,83.7,998.6,169.7,1.3,2.6,170.6,0.06,16.3,16.3,"14:18:00",1
"18/04/06","14:30",0.0,19.0,85.3,998.2,150.7,1.6,3.7,149.8,0.07,16.5,16.2,"14:25:36",1
"18/04/06","14:40",0.2,18.7,86.9,998.2,215.3,1.6,3.5,122.7,0.04,16.5,16.2,"14:32:00",1
"18/04/06","14:50",0.0,18.5,88.1,998.2,242.1,1.1,2.5,113.1,0.08,16.5,16.2,"14:46:08",1
"18/04/06","15:00",0.0,18.9,86.9,997.9,34.8,1.7,5.8,137.2,0.08,16.7,16.2,"14:55:20",1
"18/04/06","15:10",0.2,18.9,85.6,997.2,342.9,1.3,3.2,345.8,0.03,16.5,16.2,"15:01:04",1
"18/04/06","15:20",0.2,18.7,86.6,997.7,149.4,2.2,4.8,125.0,0.00,16.5,16.2,"15:19:20",1
"18/04/06","15:30",0.0,19.0,84.0,997.9,215.6,2.7,8.2,233.5,0.01,16.3,16.1,"15:21:20",1
"18/04/06","15:40",0.0,19.0,83.7,997.7,172.8,2.5,5.5,232.1,0.01,16.2,16.2,"15:32:56",1
"18/04/06","15:50",0.2,18.9,84.1,997.4,174.8,1.7,4.1,179.6,0.01,16.2,16.2,"15:40:56",1
"18/04/06","16:00",0.0,18.7,84.4,997.0,178.6,2.3,6.2,159.5,0.01,16.1,16.0,"15:54:00",1
"18/04/06","16:10",0.2,18.6,85.3,997.4,186.3,2.0,4.0,240.0,0.01,16.1,15.9,"16:08:32",1
"18/04/06","16:20",0.4,18.5,86.7,997.4,187.2,1.8,4.1,216.9,0.00,16.3,16.1,"16:12:48",1
"18/04/06","16:30",0.4,18.3,87.9,997.7,315.8,1.7,6.8,323.7,0.02,16.3,15.9,"16:28:20",1
"18/04/06","16:40",0.2,18.4,87.9,997.2,250.3,1.1,2.6,313.9,0.01,16.4,16.1,"16:34:00",1
"18/04/06","16:50",0.4,18.4,88.2,997.2,82.8,1.0,3.4,132.4,0.00,16.5,16.1,"16:42:56",1
"18/04/06","17:00",0.0,18.2,88.9,997.2,312.6,1.0,2.2,325.1,0.00,16.4,16.0,"16:52:40",1
"18/04/06","17:10",0.8,18.0,89.4,997.0,101.8,1.2,2.1,206.9,0.00,16.3,15.9,"17:01:52",1
"18/04/06","17:20",0.4,18.1,89.3,997.0,110.9,1.1,3.1,89.5,0.00,16.4,15.9,"17:18:08",1
"18/04/06","17:30",0.2,18.0,89.7,996.7,315.1,1.0,2.4,0.4,0.00,16.3,15.9,"17:28:16",1
"18/04/06","17:40",0.4,17.8,90.8,996.5,18.3,1.0,1.7,329.4,0.00,16.3,16.1,"17:30:56",1
"18/04/06","17:50",1.2,17.6,91.5,996.7,32.1,0.7,1.9,60.4,0.00,16.2,15.9,"17:46:00",1
"18/04/06","18:00",0.6,17.6,92.1,996.7,338.2,0.7,2.2,1.7,0.00,16.3,15.7,"17:59:14",1
"18/04/06","18:10",1.6,17.4,92.8,996.7,0.6,1.0,2.2,335.9,0.00,16.3,15.9,"18:00:34",1
"18/04/06","18:20",1.8,17.3,93.4,997.0,352.4,0.8,1.7,319.2,0.00,16.3,15.9,"18:16:12",1
"18/04/06","18:30",2.6,17.2,93.9,997.0,288.4,0.5,1.4,355.9,0.00,16.2,15.7,"18:20:16",1
"18/04/06","18:40",1.6,17.2,94.1,996.5,22.9,0.6,1.4,341.8,0.00,16.3,15.7,"18:37:44",1
"18/04/06","18:50",0.6,17.1,94.6,996.5,334.3,0.7,1.6,353.4,0.00,16.3,15.7,"18:40:42",1
"18/04/06","19:00",1.0,17.1,94.8,996.7,312.8,1.0,1.6,320.6,0.00,16.3,15.8,"18:55:40",1
"18/04/06","19:10",0.6,16.3,93.6,997.7,308.2,1.7,2.7,321.3,0.00,15.3,15.8,"19:08:26",1
"18/04/06","19:20",1.8,15.1,94.9,997.9,317.5,3.5,6.3,337.9,0.00,14.3,15.8,"19:19:50",1
"18/04/06","19:30",0.2,14.3,93.8,997.9,334.2,4.5,6.5,355.0,0.00,13.4,15.7,"19:29:34",1
"18/04/06","19:40",0.2,13.9,93.1,998.6,338.2,6.0,10.9,338.3,0.00,12.8,15.4,"19:35:34",1
"18/04/06","19:50",0.0,13.7,92.1,998.6,342.4,5.1,10.0,349.7,0.00,12.5,15.5,"19:42:50",1
"18/04/06","20:00",0.0,13.5,90.1,998.9,331.1,5.6,10.6,330.9,0.00,12.0,15.4,"19:51:46",1
"18/04/06","20:10",0.0,13.3,89.1,999.3,334.4,5.1,8.3,2.9,0.00,11.6,15.5,"20:05:34",1
"18/04/06","20:20",0.4,13.0,88.4,999.3,337.2,2.7,5.2,322.5,0.00,11.2,15.4,"20:10:02",1
"18/04/06","20:30",0.0,13.1,87.7,999.6,334.5,4.5,9.3,317.2,0.00,11.1,15.0,"20:20:58",1
"18/04/06","20:40",0.2,13.0,88.1,999.6,16.2,0.8,1.4,65.9,0.00,11.1,14.9,"20:37:52",1
"18/04/06","20:50",0.0,13.1,88.3,999.6,351.1,1.6,3.5,330.5,0.00,11.3,15.0,"20:48:58",1
"18/04/06","21:00",0.0,12.8,89.8,999.8,291.3,1.0,2.4,319.0,0.00,11.2,14.9,"20:50:40",1
"18/04/06","21:10",0.0,12.8,90.6,1000.0,265.3,0.3,0.9,184.1,0.00,11.3,14.9,"21:06:56",1
"18/04/06","21:20",0.0,12.8,91.2,1000.3,304.1,0.8,1.9,337.8,0.00,11.4,15.0,"21:16:08",1
"18/04/06","21:30",0.0,12.8,91.5,1000.5,278.7,1.2,2.2,319.3,0.00,11.5,14.6,"21:29:58",1
"18/04/06","21:40",0.0,12.9,92.2,1000.5,309.7,1.7,2.9,325.8,0.00,11.7,14.6,"21:38:48",1
"18/04/06","21:50",0.0,12.5,92.5,1000.3,320.1,2.1,3.1,321.9,0.00,11.4,14.7,"21:45:54",1
"18/04/06","22:00",0.2,12.3,92.9,1000.8,319.5,2.0,4.0,338.4,0.00,11.2,14.6,"21:52:46",1
"18/04/06","22:10",0.0,12.2,93.3,1000.5,328.5,2.2,4.1,318.2,0.00,11.2,14.6,"22:06:48",1
"18/04/06","22:20",0.0,12.1,93.5,1000.5,323.3,1.7,2.9,335.0,0.00,11.1,14.5,"22:12:14",1
"18/04/06","22:30",0.0,12.1,93.7,1001.0,304.8,1.3,2.5,323.7,0.00,11.2,14.6,"22:27:12",1
"18/04/06","22:40",0.0,11.9,93.7,1001.0,319.7,1.7,3.9,328.5,0.00,11.0,14.5,"22:39:50",1
"18/04/06","22:50",0.0,12.0,93.6,1001.0,306.6,1.7,3.3,336.8,0.00,11.0,14.2,"22:42:04",1
"18/04/06","23:00",0.0,11.9,93.5,1000.8,303.1,1.2,2.4,321.6,0.00,10.9,14.5,"22:50:16",1
"18/04/06","23:10",0.0,11.9,93.4,1000.8,306.0,1.2,2.1,311.3,0.00,10.9,14.2,"23:09:20",1
"18/04/06","23:20",0.0,11.9,93.3,1001.0,310.7,1.7,2.1,320.9,0.00,10.9,14.2,"23:17:20",1
"18/04/06","23:30",0.0,11.7,93.3,1000.8,315.4,1.6,2.4,327.6,0.00,10.7,14.3,"23:26:08",1
"18/04/06","23:40",0.0,11.6,93.2,1001.0,326.7,2.2,3.1,329.4,0.00,10.6,14.2,"23:33:52",1
"18/04/06","23:50",0.0,11.5,93.3,1001.0,297.9,1.5,2.2,331.7,0.00,10.5,14.2,"23:40:24",1
"18/04/06","24:00",0.0,11.3,93.2,1001.0,323.1,2.3,3.5,305.9,0.00,10.3,14.2,"23:56:24",1
